This demonstration page uses our WeatherBlox Daily Observations layout. Learn more.

Left ArrowRight Arrow

39.08367, -84.50855

Hourly Observations for December 20, 2019

Temp ( °F °C ) Dew Point ( °F °C ) Humidity (%) Winds ( mph kmh ) Pressure ( in mb ) Visibility ( mi km ) Precip ( " mm )
12:53 am 00:53 Clear 26 -3.3 23 -5 88 88 N N/A 30.45 1031 10 16 N/A
1:53 am 01:53 Clear 25 -3.9 23 -5 92 92 N N/A 30.47 1032 10 16 N/A
2:53 am 02:53 Clear 23 -5 21 -6.1 92 92 N N/A 30.50 1033 8 13 N/A
3:53 am 03:53 Clear 24 -4.4 22 -5.6 91 91 N N/A 30.52 1033 7 11 N/A
4:45 am 04:45 Clear with Mist and Fog 22 -5.6 21 -6.1 96 96 N N/A 30.56 1035 2 3 N/A
4:53 am 04:53 Clear with Mist and Fog 23 -5 22 -5.6 96 96 N N/A 30.53 1034 3 5 N/A
5:53 am 05:53 Clear with Mist and Fog 22 -5.6 20 -6.7 92 92 N N/A 30.54 1034 6 10 N/A
6:53 am 06:53 Clear 23 -5 21 -6.1 92 92 N N/A 30.55 1035 7 11 N/A
7:53 am 07:53 Sunny with Mist and Fog 22 -5.6 21 -6.1 96 96 N N/A 30.56 1035 3 5 N/A
8:53 am 08:53 Sunny 25 -3.9 23 -5 92 92 N N/A 30.57 1035 7 11 N/A
9:53 am 09:53 Sunny 30 -1.1 27 -2.8 88 88 N N/A 30.58 1035 10 16 N/A
10:53 am 10:53 Sunny 35 1.7 28 -2.2 76 76 SW 5 7 30.58 1036 10 16 N/A
11:53 am 11:53 Sunny 39 3.9 27 -2.8 62 62 S 5 7 30.55 1035 10 16 N/A
12:53 pm 12:53 Sunny 42 5.6 25 -3.9 51 51 SSW 5 7 30.53 1034 10 16 N/A
1:53 pm 13:53 Sunny 45 7.2 27 -2.8 49 49 SSW 6 9 30.52 1033 10 16 N/A
2:53 pm 14:53 Sunny 47 8.3 27 -2.8 46 46 S 6 9 30.51 1033 10 16 N/A
3:53 pm 15:53 Sunny 47 8.3 27 -2.8 46 46 S 7 11 30.50 1033 10 16 N/A
4:53 pm 16:53 Sunny 43 6.1 26 -3.3 51 51 N N/A 30.51 1033 10 16 N/A
5:53 pm 17:53 Clear 36 2.2 28 -2.2 73 73 NE 3 6 30.52 1033 10 16 N/A
6:53 pm 18:53 Clear 34 1.1 29 -1.7 82 82 N N/A 30.52 1034 10 16 N/A
7:53 pm 19:53 Clear 32 undefined 28 -2.2 85 85 N N/A 30.52 1034 10 16 N/A
8:53 pm 20:53 Clear 30 -1.1 27 -2.8 88 88 N N/A 30.51 1033 10 16 N/A
9:53 pm 21:53 Clear 30 -1.1 28 -2.2 92 92 N N/A 30.52 1033 10 16 N/A
10:53 pm 22:53 Clear 29 -1.7 27 -2.8 92 92 N N/A 30.50 1033 10 16 N/A
11:53 pm 23:53 Clear 29 -1.7 27 -2.8 92 92 N N/A 30.50 1033 9 14 N/A

Powered by AerisWeather